Wind_Speed
36 35 29 31 31 31 31 29 27 27 32 33 32 33 30 30 29 28 27 25 27 28 28 30 31 29 30 29 31 31 31 32 35 37 40 42 44 45 46 47 47 48 48 48
34 31 31 32 33 33 31 32 30 32 35 37 36 32 28 26 25 26 25 28 30 31 30 30 29 30 30 29 29 31 34 33 35 37 39 41 44 47 49 51 52 52 53 54
37 37 33 33 33 33 34 36 35 39 39 38 36 31 27 27 26 28 30 31 31 31 32 31 31 31 31 32 32 33 36 36 38 41 44 46 48 50 53 54 55 56 56 56
38 34 33 35 36 38 40 39 41 41 41 38 36 36 28 29 29 29 30 32 31 31 33 32 29 32 36 37 42 41 42 44 45 46 48 50 53 55 57 60 60 60 60 59
40 39 38 39 38 40 42 41 41 41 40 40 37 38 35 32 31 32 32 31 32 35 32 32 34 38 41 44 46 47 48 48 49 51 52 54 57 59 61 63 65 65 65 65
41 43 42 39 38 39 39 38 39 42 43 43 36 39 43 38 34 32 34 35 32 32 35 38 42 46 47 49 51 51 50 50 51 54 55 57 59 59 60 61 62 64 64 66
44 44 45 43 40 39 38 39 42 43 43 42 41 42 41 41 38 34 32 33 33 35 42 45 48 50 51 51 50 50 52 54 56 56 56 57 58 59 60 62 64 67 70 72
47 43 42 40 38 39 40 42 42 43 43 45 44 44 44 39 38 38 37 36 40 44 47 48 49 50 54 56 55 57 60 60 59 59 60 61 62 63 65 67 69 71 74 76
48 46 43 41 41 41 42 44 40 45 47 47 46 46 44 43 42 41 40 45 48 50 50 51 53 55 57 58 58 62 63 63 64 63 64 66 68 69 70 72 75 77 78 78
48 46 42 42 42 44 45 44 47 48 48 48 49 47 47 48 49 43 44 47 48 51 56 59 59 58 60 60 61 64 65 66 66 66 68 71 73 74 76 77 78 78 78 79
44 45 44 44 45 44 47 48 49 49 50 49 50 53 54 55 51 48 48 50 53 58 59 59 59 61 60 61 64 67 68 68 70 71 74 76 77 78 80 80 80 80 80 79
41 46 47 47 48 49 50 50 50 51 49 48 52 53 56 54 52 53 53 55 59 61 60 61 62 62 63 66 68 69 70 71 73 75 77 77 78 78 78 78 78 78 78 79
45 49 49 51 53 53 48 48 50 50 49 54 55 57 54 51 53 52 53 58 60 61 63 64 63 65 68 69 71 72 74 75 76 77 78 78 79 79 78 79 80 79 80 81
50 53 55 56 56 53 54 54 53 53 57 58 61 56 57 52 52 51 57 64 68 67 63 63 63 67 68 70 72 75 75 77 78 77 78 79 78 78 79 79 80 82 83 84
59 60 59 60 59 60 60 60 58 60 59 63 58 61 57 51 52 54 59 66 66 65 62 65 66 68 71 73 75 76 78 78 77 77 76 77 77 78 79 80 81 82 83 84
64 64 63 64 63 64 66 64 63 62 62 64 65 65 57 58 61 60 63 65 64 62 65 67 68 71 73 75 77 77 74 74 74 74 77 78 78 79 80 81 82 83 84 86
64 61 60 65 64 64 66 70 66 66 65 63 67 62 65 64 64 63 62 63 64 65 67 70 71 72 73 74 73 71 72 74 75 76 77 78 78 80 81 82 83 84 82 78
67 68 63 55 59 66 70 71 70 66 62 63 66 68 70 67 65 65 62 63 65 66 68 69 70 69 70 70 69 71 73 75 76 78 78 79 80 81 82 82 81 76 70 67
69 67 66 65 67 70 71 68 66 68 67 71 73 73 72 70 69 66 63 67 68 68 69 70 68 69 70 72 72 73 75 77 77 78 80 82 82 81 81 77 69 65 63 60
60 63 66 68 68 69 64 62 66 71 71 74 73 70 70 69 70 66 71 71 71 73 72 70 70 70 70 73 73 74 76 78 80 81 81 80 78 75 69 65 61 59 58 59
57 57 55 56 62 64 58 58 63 70 68 69 73 72 70 69 70 68 68 68 68 68 67 67 69 69 70 73 74 76 79 80 81 81 77 73 67 62 60 58 56 56 58 59
54 55 57 61 61 64 61 63 66 67 69 69 70 71 69 66 67 64 62 63 65 65 66 67 68 69 74 76 78 78 79 79 76 72 67 62 60 58 56 55 56 58 59 60
58 57 58 61 64 65 67 67 68 68 67 67 67 64 63 64 60 61 60 62 63 65 68 70 71 74 74 74 73 71 69 69 67 64 61 58 56 56 56 57 58 59 60 61
55 57 61 63 66 68 68 65 64 62 63 62 60 60 58 58 58 59 62 64 66 69 71 71 68 66 67 67 66 64 63 61 60 60 59 58 58 57 57 58 59 60 62 63
54 56 60 64 63 63 61 59 61 63 62 59 58 58 56 58 61 65 66 68 70 68 62 62 63 63 62 61 59 57 57 58 59 59 59 59 59 58 58 59 60 62 64 62
65 66 67 67 65 64 61 60 59 58 56 57 56 57 61 64 64 67 67 65 60 58 58 59 59 58 55 53 53 55 56 57 58 58 59 59 59 59 60 61 63 63 62 61
Wind_Direction
269 269 273 265 267 270 269 269 269 274 276 274 275 276 279 280 279 281 284 285 286 287 285 286 285 286 288 288 290 288 286 289 290 289 288 289 289 288 287 285 283 282 280 278
267 267 265 268 268 268 271 271 276 278 276 272 274 274 275 273 276 279 280 284 287 284 281 280 276 278 281 279 282 281 281 281 283 284 286 287 288 287 285 283 281 281 280 279
266 266 263 265 267 269 269 273 276 276 276 274 274 271 271 275 276 279 284 285 286 285 284 281 281 282 279 277 274 275 276 278 281 284 285 285 285 283 281 279 278 277 275 275
264 266 265 265 268 270 269 271 273 277 274 273 269 278 267 271 275 280 283 282 284 284 283 283 284 288 288 287 286 283 283 283 284 284 284 284 281 279 278 277 276 275 273 273
268 265 265 269 269 267 268 269 270 271 271 270 273 278 282 275 281 281 278 279 281 283 281 281 283 281 280 281 278 278 280 282 284 283 281 278 276 276 275 274 273 274 274 276
267 266 267 269 267 265 265 264 264 266 267 270 275 277 280 286 286 285 285 282 281 280 281 281 283 283 279 276 277 279 281 282 282 281 280 280 280 279 278 277 276 275 275 276
266 264 264 268 266 262 261 261 262 263 267 275 277 274 281 286 289 285 278 278 280 279 280 286 289 287 284 280 279 281 282 282 283 283 282 281 279 279 278 277 277 276 276 277
261 262 261 259 259 257 256 257 260 267 271 272 273 279 284 285 283 283 288 290 291 293 293 290 288 286 285 285 285 287 286 285 285 285 284 282 280 278 277 276 276 277 278 278
261 259 259 257 256 257 258 260 263 265 266 271 278 281 284 283 284 287 291 292 292 289 288 289 287 284 285 283 283 283 285 285 285 284 284 283 282 282 282 281 281 281 281 282
258 258 254 254 254 256 259 262 264 265 267 272 276 282 283 282 282 287 289 289 292 293 293 291 287 284 282 283 285 286 287 286 284 284 285 286 286 286 286 285 285 286 287 287
255 255 257 257 259 261 262 263 264 266 269 278 287 284 283 284 290 293 294 293 296 294 289 285 284 283 284 287 287 287 286 286 286 286 285 286 286 285 285 286 287 288 289 289
251 253 256 258 259 261 262 264 267 267 277 282 279 282 283 287 292 291 291 294 292 289 288 287 286 286 287 288 289 288 289 287 286 286 286 286 286 288 289 290 291 290 290 290
253 255 256 257 259 262 268 278 276 271 269 275 274 285 283 283 286 288 289 289 287 286 286 288 288 288 288 287 287 287 286 286 287 287 288 290 291 292 293 293 293 293 293 294
253 255 255 262 268 264 269 274 269 263 270 277 278 276 277 280 283 285 285 286 288 289 287 289 288 286 286 286 286 286 287 288 288 290 291 292 292 293 293 293 293 294 293 293
260 263 262 266 267 266 272 270 267 268 272 270 279 274 275 279 281 283 286 288 287 289 288 286 285 285 285 286 286 287 287 288 290 292 292 292 292 292 292 292 292 293 294 295
265 266 266 266 265 264 268 268 268 269 270 276 277 274 275 279 281 286 286 284 285 287 285 286 287 287 287 287 287 288 290 290 291 292 291 291 291 291 292 293 294 295 295 295
262 264 264 256 260 262 264 271 272 276 275 274 271 277 280 282 284 285 284 286 288 285 286 286 288 289 289 289 289 290 289 290 290 289 289 291 292 293 294 295 296 296 296 294
250 257 256 253 255 252 260 266 272 272 270 270 275 279 279 281 281 283 286 287 285 285 285 286 287 289 289 289 289 288 287 288 289 290 291 293 294 295 295 296 296 295 293 293
249 256 249 243 245 252 256 262 269 269 270 271 274 276 275 276 281 284 284 285 289 287 287 287 289 289 289 289 288 288 289 290 290 292 293 295 295 295 295 295 294 293 293 294
255 253 248 253 257 262 265 266 269 270 270 271 273 273 275 281 284 286 289 291 289 287 285 286 287 288 288 287 288 289 290 291 292 294 295 294 294 294 294 294 294 294 294 293
261 256 258 263 266 268 271 270 270 270 274 271 272 275 278 281 284 286 286 285 282 284 286 287 287 287 289 290 291 292 292 293 294 295 293 293 294 293 294 294 293 292 292 292
256 259 261 267 269 270 273 269 269 271 272 274 274 276 280 283 286 283 284 283 283 284 286 286 287 291 292 293 293 293 294 293 293 292 293 293 292 293 293 292 292 292 292 292
269 270 270 267 268 268 267 268 270 273 274 275 276 279 283 285 283 283 282 281 283 285 287 291 293 293 294 294 294 294 292 292 292 293 292 292 293 293 292 292 291 292 294 295
265 271 272 273 273 272 273 274 275 273 274 276 279 280 280 280 280 281 284 286 289 291 292 294 296 296 296 295 294 292 292 292 292 292 292 292 292 292 291 291 292 294 297 300
270 274 277 276 274 272 270 269 268 270 273 275 277 280 283 285 286 285 287 289 291 294 296 297 297 297 296 294 294 294 292 292 292 292 293 293 293 293 294 294 296 298 299 300
275 274 275 275 271 266 264 265 268 273 276 277 280 283 283 283 285 288 291 291 293 296 296 297 297 296 295 294 293 293 293 293 293 294 293 293 294 295 295 295 296 297 297 299
Height
5822 5824 5827 5824 5824 5825 5826 5827 5829 5830 5827 5826 5827 5827 5829 5828 5828 5827 5827 5827 5826 5825 5825 5824 5823 5823 5821 5820 5820 5818 5815 5814 5814 5813 5812 5811 5809 5806 5803 5801 5798 5796 5794 5792
5814 5816 5817 5817 5817 5817 5818 5817 5820 5820 5818 5818 5818 5819 5820 5820 5821 5820 5819 5819 5819 5818 5816 5815 5814 5814 5813 5811 5810 5810 5808 5805 5803 5802 5800 5799 5798 5796 5793 5790 5788 5785 5783 5781
5804 5806 5809 5809 5809 5809 5809 5809 5811 5809 5809 5809 5809 5810 5812 5811 5810 5811 5811 5810 5809 5809 5809 5809 5808 5807 5804 5802 5798 5798 5797 5796 5794 5793 5791 5789 5787 5785 5782 5779 5775 5773 5771 5768
5792 5797 5799 5799 5800 5801 5798 5801 5801 5800 5798 5799 5800 5797 5803 5802 5801 5801 5801 5800 5800 5800 5800 5800 5799 5798 5797 5796 5795 5791 5788 5786 5785 5782 5780 5778 5776 5773 5770 5766 5763 5760 5757 5754
5786 5786 5789 5789 5791 5788 5789 5791 5790 5789 5789 5788 5791 5789 5790 5793 5794 5793 5790 5789 5789 5789 5789 5788 5787 5785 5783 5782 5780 5776 5774 5773 5771 5769 5766 5764 5760 5757 5753 5751 5748 5745 5742 5739
5775 5775 5776 5779 5779 5778 5779 5780 5780 5779 5778 5777 5784 5781 5775 5782 5786 5785 5785 5784 5781 5782 5782 5780 5778 5775 5773 5769 5766 5763 5761 5759 5757 5753 5750 5747 5744 5741 5739 5736 5732 5729 5725 5722
5765 5765 5765 5766 5768 5768 5769 5769 5768 5769 5768 5770 5771 5769 5770 5769 5769 5771 5771 5773 5774 5774 5773 5772 5769 5764 5760 5754 5751 5749 5747 5744 5740 5737 5735 5731 5728 5725 5721 5718 5715 5712 5708 5704
5752 5754 5754 5756 5757 5758 5758 5758 5759 5759 5759 5759 5758 5757 5759 5761 5761 5759 5759 5759 5760 5759 5758 5755 5751 5747 5744 5741 5737 5734 5731 5727 5723 5720 5717 5714 5711 5707 5704 5701 5698 5694 5690 5685
5740 5741 5744 5745 5746 5748 5748 5748 5753 5749 5747 5746 5747 5746 5747 5747 5746 5746 5748 5749 5749 5748 5744 5740 5736 5732 5729 5725 5721 5718 5715 5712 5710 5706 5702 5698 5694 5690 5687 5683 5679 5675 5670 5666
5727 5729 5732 5734 5736 5736 5738 5741 5739 5737 5737 5736 5735 5734 5733 5732 5733 5736 5737 5738 5735 5732 5728 5725 5720 5716 5713 5710 5706 5704 5701 5698 5694 5689 5684 5679 5676 5671 5667 5663 5659 5655 5651 5647
5716 5718 5722 5722 5725 5728 5729 5727 5727 5728 5725 5724 5725 5723 5720 5719 5722 5722 5723 5721 5720 5718 5714 5710 5705 5702 5700 5695 5690 5687 5684 5681 5676 5671 5666 5662 5658 5653 5648 5643 5639 5635 5630 5625
5706 5705 5708 5711 5712 5714 5713 5714 5714 5712 5715 5715 5711 5711 5707 5709 5710 5709 5707 5705 5703 5700 5696 5692 5689 5686 5681 5676 5674 5670 5666 5662 5658 5654 5648 5642 5637 5632 5628 5623 5618 5613 5609 5604
5694 5692 5694 5696 5697 5698 5701 5703 5702 5701 5700 5697 5697 5700 5696 5697 5697 5695 5692 5690 5687 5684 5680 5676 5673 5668 5664 5660 5657 5653 5649 5644 5640 5633 5627 5622 5617 5612 5607 5602 5596 5591 5586 5580
5678 5679 5680 5683 5685 5687 5687 5688 5686 5685 5683 5683 5680 5686 5684 5684 5681 5679 5676 5673 5670 5668 5665 5662 5656 5651 5648 5643 5639 5635 5630 5624 5619 5614 5608 5602 5596 5592 5586 5580 5575 5570 5564 5557
5661 5663 5667 5669 5671 5669 5671 5671 5670 5668 5669 5663 5674 5670 5673 5670 5666 5662 5659 5657 5653 5652 5649 5644 5638 5634 5630 5625 5620 5616 5610 5604 5599 5594 5588 5581 5576 5571 5566 5560 5555 5549 5542 5535
5646 5647 5650 5650 5651 5650 5650 5655 5652 5652 5654 5652 5653 5654 5658 5652 5648 5646 5643 5639 5637 5634 5628 5624 5621 5617 5612 5607 5602 5596 5591 5584 5579 5574 5568 5562 5557 5552 5546 5540 5534 5528 5521 5513
5631 5631 5634 5632 5635 5633 5631 5637 5637 5640 5638 5640 5635 5643 5634 5634 5631 5628 5626 5622 5619 5613 5610 5605 5601 5597 5592 5588 5583 5578 5571 5565 5561 5556 5550 5544 5537 5531 5525 5518 5512 5505 5498 5491
5617 5617 5617 5617 5618 5612 5619 5622 5624 5624 5625 5622 5622 5620 5617 5616 5613 5613 5611 5607 5601 5597 5592 5588 5583 5578 5573 5569 5565 5559 5554 5547 5542 5537 5530 5523 5516 5510 5503 5496 5489 5483 5477 5471
5599 5601 5599 5598 5598 5599 5604 5609 5611 5608 5612 5607 5605 5604 5600 5597 5596 5597 5594 5588 5584 5578 5573 5569 5564 5561 5557 5552 5546 5541 5536 5529 5522 5517 5510 5502 5495 5487 5480 5474 5468 5463 5458 5453
5585 5588 5588 5584 5582 5582 5593 5595 5592 5588 5590 5590 5587 5583 5580 5580 5578 5578 5574 5571 5565 5560 5555 5551 5549 5546 5540 5533 5527 5522 5516 5508 5502 5494 5489 5481 5473 5466 5460 5455 5450 5445 5441 5437
5570 5571 5570 5570 5567 5565 5575 5576 5573 5567 5574 5573 5569 5566 5564 5564 5562 5559 5555 5551 5545 5540 5536 5534 5531 5526 5519 5513 5508 5501 5493 5486 5479 5473 5466 5460 5454 5448 5444 5439 5434 5430 5426 5422
5556 5556 5558 5555 5553 5550 5558 5553 5551 5550 5546 5549 5550 5547 5547 5546 5544 5538 5535 5532 5526 5524 5521 5517 5514 5507 5500 5494 5487 5479 5472 5464 5459 5452 5447 5442 5438 5433 5429 5424 5419 5414 5410 5406
5539 5543 5542 5541 5537 5535 5533 5532 5529 5527 5526 5525 5528 5529 5528 5526 5524 5521 5519 5515 5512 5507 5503 5496 5493 5489 5482 5473 5465 5459 5452 5445 5440 5435 5430 5426 5422 5418 5414 5409 5404 5399 5393 5389
5526 5528 5525 5523 5521 5517 5513 5509 5507 5503 5504 5505 5506 5507 5508 5509 5507 5505 5500 5496 5493 5488 5482 5476 5471 5467 5462 5453 5448 5442 5435 5430 5425 5420 5416 5412 5407 5403 5399 5394 5389 5383 5376 5371
5515 5514 5512 5507 5503 5495 5491 5488 5482 5484 5487 5489 5489 5491 5490 5488 5487 5483 5483 5479 5474 5467 5461 5456 5452 5447 5442 5435 5429 5425 5421 5415 5411 5406 5402 5397 5392 5387 5382 5377 5371 5366 5359 5355
5504 5498 5493 5486 5480 5471 5471 5469 5467 5471 5474 5473 5474 5475 5471 5469 5467 5463 5464 5460 5455 5449 5443 5438 5434 5429 5424 5419 5414 5409 5405 5400 5395 5391 5386 5381 5376 5371 5366 5360 5355 5348 5344 5339